Springfield, OH

3:21 AM EDT on April 26, 2017 (GMT -0400)
Springfield-Beckley Municipal

Weather History for KSGH - October, 2013

Change the Weather History Date:

Monday, October 28, 2013

  Actual Average (KFFO) Record (KFFO)
Temperature  
Mean Temperature 44 °F -  
Max Temperature 61 °F 58 °F 77 °F (1999)
Min Temperature 27 °F 39 °F 28 °F (1997)
Degree Days  
Heating Degree Days 21    
Moisture  
Dew Point 33 °F    
Average Humidity 69    
Maximum Humidity 100    
Minimum Humidity 35    
Precipitation  
Precipitation 0.00 in - - ()
Sea Level Pressure  
Sea Level Pressure 30.24 in    
Wind  
Wind Speed 2 mph (SE)    
Max Wind Speed 6 mph    
Max Gust Speed -    
Visibility 7 miles    
Events      
Averages and records for this station are not official NWS values.
T = Trace of Precipitation, MM = Missing Value Source: NWS Daily Summary

Daily Weather History Graph

Daily Weather History Graph

Search for Another Location

Airport or City:

Trip Planner

Search our weather history database for the weather conditions in past years. The results will help you decide how hot, cold, wet, or windy it might be!

Date:

Astronomy

Oct. 28, 2013 Rise Set
Actual Time 7:59 AM EDT 6:37 PM EDT
Civil Twilight 7:32 AM EDT 7:05 PM EDT
Nautical Twilight 7:00 AM EDT 7:37 PM EDT
Astronomical Twilight 6:28 AM EDT 8:08 PM EDT
Moon 1:52 AM EDT (10/28) 3:18 PM EDT (10/28)
Length of Visible Light 11h 33m
Length of Day
10h 37m
Waning Crescent, 34% of the Moon is Illuminated
Oct 28
Waning Crescent
Nov 3
New
Nov 10
First Quarter
Nov 17
Full
Nov 25
Last Quarter

Hourly Weather History & Observations

Time (EDT) Temp. Windchill Dew Point Humidity Pressure Visibility Wind Dir Wind Speed Gust Speed Precip Events Conditions
12:56 AM 32.0 °F - 31.1 °F 96% 30.13 in 8.0 mi Calm Calm - N/A   Clear
1:56 AM 31.1 °F 27.7 °F 30.0 °F 96% 30.13 in 8.0 mi SSE 3.5 mph - N/A   Clear
2:56 AM 30.0 °F - 30.0 °F 100% 30.14 in 7.0 mi Calm Calm - N/A   Clear
3:56 AM 30.0 °F 26.5 °F 30.0 °F 100% 30.16 in 7.0 mi SSE 3.5 mph - N/A   Clear
4:56 AM 30.0 °F - 29.1 °F 96% 30.17 in 7.0 mi Calm Calm - N/A   Clear
5:56 AM 30.0 °F - 29.1 °F 96% 30.19 in 5.0 mi Calm Calm - N/A   Clear
6:56 AM 27.1 °F - 26.1 °F 96% 30.21 in 7.0 mi Calm Calm - N/A   Clear
7:56 AM 27.1 °F 23.2 °F 26.1 °F 96% 30.22 in 6.0 mi SSE 3.5 mph - N/A   Clear
8:56 AM 31.1 °F - 30.0 °F 96% 30.25 in 5.0 mi Calm Calm - N/A   Clear
9:56 AM 43.0 °F - 37.9 °F 82% 30.26 in 6.0 mi Calm Calm - 0.00 in   Haze
10:56 AM 52.9 °F - 36.9 °F 55% 30.26 in 8.0 mi SE 3.5 mph - N/A   Clear
11:56 AM 55.9 °F - 34.9 °F 45% 30.27 in 8.0 mi SSE 5.8 mph - N/A   Clear
12:56 PM 57.9 °F - 32.9 °F 39% 30.27 in 8.0 mi SSE 3.5 mph - N/A   Clear
1:56 PM 59.9 °F - 34.9 °F 39% 30.25 in 8.0 mi SSE 3.5 mph - N/A   Clear
2:08 PM 60.8 °F - 33.8 °F 36% 30.23 in 1.5 mi SSW 3.5 mph - N/A   Haze
2:18 PM 60.8 °F - 33.8 °F 36% 30.23 in 4.0 mi Calm Calm - N/A   Haze
2:56 PM 61.0 °F - 34.9 °F 38% 30.25 in 8.0 mi Calm Calm - N/A   Clear
3:56 PM 61.0 °F - 34.0 °F 36% 30.24 in 7.0 mi Calm Calm - N/A   Partly Cloudy
4:56 PM 61.0 °F - 32.9 °F 35% 30.25 in 7.0 mi Calm Calm - N/A   Clear
5:56 PM 56.8 °F - 34.0 °F 42% 30.26 in 7.0 mi Calm Calm - N/A   Clear
6:56 PM 46.9 °F - 36.9 °F 68% 30.28 in 9.0 mi Calm Calm - N/A   Clear
7:56 PM 45.9 °F 43.6 °F 34.9 °F 66% 30.30 in 7.0 mi SSW 4.6 mph - N/A   Clear
8:56 PM 45.9 °F 42.9 °F 34.9 °F 66% 30.30 in 8.0 mi NNW 5.8 mph - N/A   Clear
9:56 PM 41.0 °F 37.1 °F 34.0 °F 76% 30.31 in 8.0 mi ESE 5.8 mph - N/A   Clear
10:56 PM 38.8 °F 34.6 °F 32.9 °F 79% 30.33 in 8.0 mi East 5.8 mph - N/A   Clear
11:56 PM 37.9 °F 33.5 °F 34.9 °F 89% 30.33 in 8.0 mi ESE 5.8 mph - N/A   Clear